RH
34 44 52 47 44 37 33 35 40 32 52 76 77 83 88 88 83 82 78 72 68 64 57 56 56 59 64 70 79 81 84 88 89 91 94 94 92 93 95 90 87 83 92 94
47 52 40 36 39 34 38 38 39 29 30 34 45 74 87 88 90 82 78 72 67 62 60 55 56 58 62 70 76 81 82 88 86 88 90 89 90 92 92 89 87 88 88 89
48 40 33 34 38 35 45 45 38 33 34 79 81 81 95 90 84 83 78 70 64 60 60 55 55 59 63 70 74 78 80 85 86 87 90 92 90 92 88 89 88 86 89 86
44 36 33 39 41 37 64 31 29 30 27 27 52 40 90 94 91 86 87 79 71 66 58 52 53 59 64 67 68 74 78 82 85 88 88 90 88 89 88 89 93 87 88 88
38 32 37 37 30 32 37 28 29 28 27 32 31 28 36 91 92 83 79 83 74 69 61 51 50 56 64 63 66 69 79 82 84 86 85 88 91 86 88 87 87 91 92 88
25 20 25 29 23 28 24 25 29 32 31 32 31 26 30 93 82 77 69 74 73 62 60 51 47 52 64 60 63 68 81 83 87 86 88 88 89 89 88 90 88 89 95 90
18 20 19 18 23 21 26 33 44 40 37 34 36 30 73 60 67 68 70 64 66 69 64 60 51 51 60 63 65 68 80 84 87 85 88 87 86 89 88 88 88 90 91 92
27 26 24 19 25 27 37 38 42 40 45 34 40 33 56 72 70 74 76 74 62 60 59 63 50 49 56 62 67 69 78 79 84 84 86 89 88 82 84 86 88 88 86 85
32 31 24 22 23 26 32 31 35 43 56 42 41 55 51 64 73 76 79 81 85 62 56 56 55 47 53 60 65 70 77 77 81 81 85 90 89 88 84 88 89 87 88 82
51 36 31 27 24 26 28 33 37 41 45 47 47 87 93 78 79 76 81 84 90 78 58 55 54 55 49 54 62 66 73 75 77 77 79 79 83 86 85 87 90 90 87 86
60 41 32 33 40 44 39 43 48 51 48 47 68 92 75 76 72 75 78 82 87 94 90 63 60 73 74 68 57 64 69 73 74 75 77 79 83 85 87 81 84 88 89 88
49 50 52 48 35 34 39 49 54 55 48 59 74 88 83 80 78 72 70 78 82 84 89 92 92 90 85 77 77 66 70 68 70 77 77 78 81 86 86 84 84 84 87 90
43 52 44 50 40 40 46 42 60 57 59 58 81 84 80 78 81 81 83 69 75 81 86 88 92 93 95 93 89 83 84 81 72 78 73 79 81 83 84 86 88 87 84 86
45 62 38 52 56 55 54 44 42 54 55 56 51 62 75 78 84 83 85 77 69 73 83 90 92 91 90 92 96 92 88 88 88 73 72 78 78 78 76 81 88 87 85 84
44 62 68 67 53 49 46 40 38 52 49 52 48 77 79 86 80 80 75 78 82 77 74 82 87 91 90 90 92 93 95 93 93 91 83 76 77 77 78 80 84 87 86 81
64 84 69 60 51 44 58 61 56 71 80 59 86 86 75 68 65 75 78 76 80 84 80 79 79 81 89 88 89 90 92 95 94 93 90 88 81 83 81 80 80 88 87 86
68 78 64 68 64 50 49 57 83 81 83 83 90 80 61 66 72 79 75 71 70 75 84 81 80 80 89 89 87 90 90 93 95 96 94 94 94 88 85 80 82 82 87 85
71 81 85 78 67 56 35 72 67 79 82 82 79 73 69 70 60 64 62 66 65 71 73 84 78 78 78 87 85 83 86 88 93 95 95 94 94 94 91 87 84 82 77 84
67 78 90 80 76 58 59 68 83 81 95 88 89 84 75 68 61 68 64 60 63 64 72 70 73 74 68 77 87 88 86 87 87 91 94 95 95 95 94 94 89 83 79 77
80 85 88 87 75 69 64 65 64 75 92 86 85 90 90 80 81 76 73 64 59 60 61 70 63 63 80 70 82 92 89 87 89 90 93 95 96 96 97 98 97 96 83 79
92 93 89 91 86 74 72 63 66 80 76 91 86 89 91 92 87 80 70 67 63 60 62 61 68 65 71 73 75 91 90 88 90 88 90 94 95 97 97 97 98 98 96 90
83 92 99 97 93 89 69 68 78 85 94 87 83 88 88 88 83 78 75 73 70 70 65 62 65 74 68 74 81 89 85 86 88 92 92 93 96 96 96 98 98 96 97 97
94 87 93 88 87 78 79 68 87 86 81 82 89 84 88 90 87 80 77 72 67 67 67 64 71 70 72 76 83 89 85 83 83 88 93 95 95 95 95 98 98 98 97 96
92 90 93 78 76 83 82 84 82 82 82 82 84 86 86 90 84 80 72 69 70 69 69 70 70 71 72 71 81 88 89 83 84 84 82 94 96 97 97 96 97 98 98 96
90 92 92 88 81 84 78 84 80 84 85 85 84 84 85 82 79 75 68 66 66 66 67 67 75 73 71 68 71 76 92 90 91 92 91 94 94 97 97 97 97 94 93 93
94 92 95 93 76 77 69 75 83 82 83 83 82 80 79 79 81 77 69 65 68 70 64 68 71 72 71 69 70 73 85 87 94 92 93 95 96 95 98 98 98 100 100 100
Wind_Speed
2 5 5 7 6 4 4 4 0 2 4 4 9 7 8 7 7 11 12 17 16 17 13 13 13 13 12 8 7 8 8 7 6 2 3 2 3 2 1 3 4 4 4 5
5 4 8 5 7 5 2 3 2 3 1 7 3 3 4 9 2 9 12 13 16 14 12 13 13 12 13 14 13 9 9 7 8 4 2 3 3 2 2 2 2 3 2 3
7 5 6 5 4 4 2 4 3 4 3 2 2 4 3 2 3 4 6 8 7 14 16 12 13 14 14 13 13 12 12 10 8 6 4 3 4 3 2 2 2 3 3 3
4 1 5 3 2 6 2 8 5 2 2 2 2 4 1 3 5 5 4 6 8 9 11 12 14 14 15 15 13 13 11 10 8 7 5 6 5 4 3 3 3 3 3 4
6 5 4 3 7 6 8 6 7 5 3 2 2 5 6 1 7 11 10 7 9 7 10 16 18 18 16 14 14 13 11 9 9 9 7 5 5 3 2 2 3 3 2 2
0 1 3 4 3 8 4 6 8 6 4 3 2 5 6 5 7 8 3 8 10 13 11 15 16 15 15 14 13 11 11 10 8 11 8 8 9 6 4 3 3 3 2 2
6 4 6 4 1 4 6 7 3 4 3 6 5 5 1 7 6 6 8 8 15 14 14 10 17 17 16 17 16 13 12 11 9 12 10 8 9 9 8 6 4 4 3 2
3 4 7 10 3 1 2 6 7 6 6 5 2 5 5 5 6 10 8 9 12 17 17 17 16 18 18 18 17 17 15 13 11 10 11 8 8 6 6 6 4 4 5 4
4 2 6 4 5 3 1 5 2 8 3 4 2 4 2 15 16 18 18 14 16 13 19 19 17 17 17 18 19 18 16 15 12 13 9 7 7 7 8 7 5 4 4 4
1 4 2 6 6 7 8 1 4 4 5 3 4 3 3 17 20 20 22 22 21 9 11 12 12 14 15 17 16 16 15 18 16 15 12 11 11 8 7 6 7 6 6 5
2 4 5 6 9 5 7 6 5 5 3 6 5 3 6 9 13 16 16 17 19 19 15 2 3 7 5 7 13 14 15 16 14 14 12 10 9 9 8 9 9 7 5 6
3 5 5 1 4 3 5 2 3 5 3 2 4 1 6 10 12 13 15 15 17 19 18 17 15 10 4 5 6 10 11 13 13 12 12 12 10 9 9 9 9 9 9 5
1 4 4 4 7 5 6 5 3 4 3 1 5 3 5 9 11 14 13 15 15 18 19 17 17 15 12 7 4 4 5 8 9 9 10 8 8 9 12 11 9 8 9 8
9 4 4 7 3 3 2 3 3 4 4 4 2 5 8 11 12 14 14 15 15 16 16 15 15 15 14 13 9 5 2 4 5 9 10 10 11 12 11 10 10 10 9 9
6 4 3 2 1 2 3 4 4 0 4 3 5 5 6 8 10 12 13 13 14 16 17 15 14 12 12 13 12 10 6 3 6 6 10 13 11 10 9 8 9 10 10 11
4 3 2 3 3 4 2 5 3 3 4 5 8 5 4 6 9 11 12 14 15 13 14 13 13 12 12 12 10 9 9 7 4 8 10 8 9 8 9 9 9 9 11 11
4 5 3 2 3 2 3 3 1 4 4 1 3 2 4 6 8 7 8 10 12 13 11 11 12 11 10 9 9 11 11 12 5 6 8 8 8 8 10 10 9 10 11 10
6 5 3 3 2 3 5 2 2 7 6 5 4 5 5 5 4 7 8 9 10 11 13 10 9 10 10 8 9 7 9 10 11 11 5 7 9 11 9 8 10 10 9 10
3 5 4 4 3 3 1 2 2 2 3 4 3 6 6 12 9 5 10 12 10 9 8 10 10 9 9 10 7 6 7 8 9 11 11 10 8 6 11 10 10 9 8 9
5 6 6 2 4 7 4 4 3 3 3 2 2 1 4 9 4 2 11 13 13 12 10 9 12 13 9 10 9 6 5 6 8 8 8 9 9 9 7 5 9 9 9 11
3 4 5 3 2 6 4 4 3 5 4 4 1 2 1 2 4 10 13 13 11 12 13 14 10 10 12 11 8 9 6 4 5 6 7 8 9 10 8 8 6 7 11 11
6 6 4 3 2 8 5 3 6 3 3 4 2 1 4 5 9 11 12 12 13 11 13 14 13 10 10 12 8 8 10 7 6 5 7 6 9 12 7 7 8 9 10 11
2 7 6 8 6 3 3 4 5 6 5 4 2 2 3 5 5 11 12 13 14 14 12 12 13 15 11 9 9 10 10 8 8 5 2 7 6 13 7 8 6 9 10 9
3 4 3 2 2 5 5 2 4 6 6 5 5 5 4 6 8 9 11 13 13 13 13 12 13 15 17 9 8 11 11 8 8 7 6 5 5 8 8 5 6 6 8 7
5 6 6 4 5 1 6 7 5 6 5 5 6 6 9 8 9 9 11 16 15 15 13 11 11 14 19 15 13 10 7 8 9 6 7 8 5 10 9 6 5 7 8 9
6 8 6 7 7 6 5 5 7 8 9 8 7 7 9 10 10 10 12 12 13 15 16 15 13 14 17 16 15 13 6 5 6 8 5 7 7 8 7 6 8 10 14 19
Wind_Direction
192 103 183 194 190 164 119 104 2 290 193 183 210 248 188 186 181 174 179 180 185 192 186 185 189 182 177 163 175 192 173 171 148 142 138 143 174 170 183 166 188 207 186 167
58 193 211 177 166 143 120 102 287 290 282 189 347 327 164 173 186 183 187 189 189 185 186 192 189 186 184 181 182 190 196 179 172 161 166 155 142 134 120 124 187 223 208 143
141 207 156 185 128 125 114 159 198 211 21 19 72 356 114 134 120 159 207 194 191 189 194 192 188 189 188 190 183 191 197 184 183 164 130 81 81 70 76 136 185 200 185 170
174 134 168 135 177 137 183 208 184 220 90 228 125 284 360 170 212 221 218 180 201 188 189 190 191 194 192 198 192 188 197 187 176 163 169 151 158 149 189 181 163 182 190 160
239 157 160 174 218 155 216 157 176 177 166 83 320 77 267 166 218 224 215 205 199 204 185 196 191 195 194 189 190 191 191 196 171 177 185 157 150 148 146 149 176 161 201 192
190 24 84 219 251 183 108 75 42 50 88 48 231 123 351 10 324 336 230 227 226 210 201 194 197 187 194 191 183 185 181 201 174 177 183 179 168 160 152 160 181 188 184 178
360 9 325 39 39 59 88 80 25 34 45 200 4 67 215 306 350 357 324 282 218 209 218 199 189 190 191 189 187 184 182 193 191 182 184 192 182 166 175 177 181 173 171 190
108 11 5 331 37 119 84 149 151 167 172 192 62 170 189 25 6 348 345 304 289 218 197 198 196 193 191 191 188 187 187 197 184 190 197 190 183 184 178 177 177 189 194 197
122 41 323 39 13 31 215 65 187 105 4 82 221 330 48 3 7 5 1 356 339 268 212 202 190 192 187 191 192 190 187 194 192 191 186 188 188 183 190 187 179 187 186 185
148 92 38 305 12 25 88 13 65 9 129 155 32 48 318 1 359 355 1 4 356 324 225 204 203 193 188 193 194 193 195 192 192 194 190 190 194 195 191 176 190 190 199 192
75 77 317 44 21 306 3 9 23 110 93 148 133 297 9 1 9 3 360 11 15 22 22 11 176 161 182 183 190 197 198 193 194 194 197 192 188 192 187 193 194 193 194 198
1 113 66 95 299 337 42 58 112 120 219 54 119 166 6 26 13 8 20 19 29 33 33 34 33 31 71 168 179 191 201 202 199 200 196 198 189 185 195 201 203 186 195 192
162 23 85 13 334 4 44 334 78 100 88 43 118 184 44 36 18 11 14 28 29 35 31 34 31 28 23 17 36 164 170 199 191 188 197 194 192 195 205 201 200 194 195 199
79 63 130 166 154 194 348 310 352 97 94 162 162 136 39 12 21 8 10 22 29 37 36 29 29 25 19 14 14 26 212 194 192 190 194 198 201 198 206 211 199 197 201 204
88 93 76 80 110 206 240 276 293 316 137 111 203 126 21 44 41 18 14 22 28 25 31 30 22 21 23 12 2 5 5 301 222 214 208 211 209 209 204 197 200 209 201 212
15 143 113 61 346 343 29 349 78 46 36 92 109 78 32 66 61 34 21 18 23 25 18 12 16 7 16 19 1 356 357 329 303 234 224 225 214 199 201 203 204 191 209 213
70 124 88 184 347 59 347 312 356 105 59 57 117 93 26 60 55 42 22 24 15 5 7 10 0 354 349 4 18 356 356 349 313 284 235 220 220 219 208 204 202 207 201 205
126 98 90 159 43 200 241 2 334 106 78 44 88 43 26 342 338 65 33 24 9 0 352 348 354 345 344 341 357 19 357 9 7 6 319 227 225 231 229 207 208 210 213 206
71 121 87 130 179 278 265 262 85 125 119 32 61 4 350 335 299 150 32 6 351 348 342 336 330 335 329 341 339 354 6 360 21 4 354 345 334 259 221 217 219 217 217 219
66 69 108 148 163 212 211 156 109 147 263 170 131 94 343 348 355 259 351 345 330 329 329 331 334 329 332 331 340 331 7 347 7 2 343 321 312 299 290 242 225 228 227 225
38 25 137 169 204 292 207 157 160 133 218 150 85 329 6 281 245 304 317 313 311 304 317 325 327 327 320 321 331 317 311 345 300 343 339 331 324 282 267 255 254 248 228 224
166 141 177 120 150 257 162 112 173 176 132 147 179 237 286 273 291 296 303 307 310 311 317 319 316 315 317 310 317 316 303 305 302 335 344 334 318 293 284 263 247 257 243 226
218 179 181 175 211 252 193 150 157 161 160 184 183 249 274 291 293 308 308 310 309 306 307 310 304 303 303 300 297 296 291 300 299 274 254 313 310 288 293 276 242 251 251 234
223 159 164 70 212 229 222 219 188 181 188 182 193 211 222 256 279 288 301 308 305 304 299 297 294 293 296 295 292 279 286 289 301 309 304 250 247 263 252 259 242 264 242 240
189 130 159 262 261 323 252 225 205 215 215 210 217 221 233 241 262 273 302 310 304 298 295 286 281 286 285 294 287 279 241 281 296 299 315 311 304 287 303 303 270 263 272 267
190 173 162 217 204 159 206 205 177 194 212 220 229 254 241 236 252 277 294 300 294 291 293 287 275 273 277 281 285 290 246 234 263 297 310 300 296 288 303 300 314 287 278 295